FW8858 Weather Reports


time (UTC)temp
F
wind
direction
speed
knots
gust
knots
rain 1hr
in
rain 24hr
in
rain mn
in
humidity
%
barometer
mb
20260506143043 65 99 1.7 6.1 0.00 0.00 0.00 74 1008.6
20260506142523 65 311 1.7 3.5 0.00 0.00 0.00 74 1008.7
20260506142023 64 263 0.9 2.6 0.00 0.00 0.00 75 1008.7
20260506141535 64 300 0.9 2.6 0.00 0.00 0.00 75 1008.9
20260506141027 64 277 0.9 6.1 0.00 0.00 0.00 75 1008.9
20260506140525 64 279 1.7 8.7 0.00 0.00 0.00 75 1008.7
20260506140035 64 206 0.9 8.7 0.00 0.00 0.00 75 1008.6
20260506135523 64 86 0.9 7.0 0.00 0.00 0.00 76 1008.8
20260506135024 64 146 1.7 7.0 0.00 0.00 0.00 76 1008.6
20260506134544 63 126 1.7 7.8 0.00 0.00 0.00 76 1008.6
20260506134119 63 277 1.7 7.8 0.00 0.00 0.00 77 1008.4
20260506133525 63 67 0.9 8.7 0.00 0.00 0.00 77 1008.6
20260506133041 63 106 1.7 8.7 0.00 0.00 0.00 77 1008.5
20260506132528 63 134 0.9 6.1 0.00 0.00 0.00 77 1008.5
20260506132024 63 280 1.7 6.1 0.00 0.00 0.00 77 1008.6
20260506131548 63 109 1.7 6.1 0.00 0.00 0.00 77 1008.2
20260506131024 62 208 0.9 4.3 0.00 0.00 0.00 78 1008.5
20260506130524 62 113 1.7 4.3 0.00 0.00 0.00 78 1008.4
20260506130054 62 104 0.9 5.2 0.00 0.00 0.00 78 1008.5
20260506125526 62 168 1.7 5.2 0.00 0.00 0.00 79 1008.6
20260506125029 62 180 0.9 4.3 0.00 0.00 0.00 79 1008.7
20260506124535 62 202 0.9 5.2 0.00 0.00 0.00 79 1008.7
20260506124024 62 246 0.9 6.1 0.00 0.00 0.00 78 1008.7
20260506123525 62 115 1.7 6.1 0.00 0.00 0.00 79 1008.6
20260506123043 62 117 1.7 4.3 0.00 0.00 0.00 79 1008.6
20260506122525 62 189 0.9 5.2 0.00 0.00 0.00 78 1008.7
20260506122024 62 113 1.7 6.1 0.00 0.00 0.00 78 1008.9
20260506121541 62 165 1.7 6.1 0.00 0.00 0.00 78 1008.9
20260506121024 62 174 0.9 6.1 0.00 0.00 0.00 78 1009.1
20260506120527 62 166 1.7 6.1 0.00 0.00 0.00 79 1009.0
20260506120042 62 173 1.7 6.1 0.00 0.00 0.00 79 1009.0
20260506115526 62 171 1.7 6.1 0.00 0.00 0.00 79 1009.0
20260506115024 61 86 0.9 6.1 0.00 0.00 0.00 80 1008.9
20260506114538 61 262 1.7 7.0 0.00 0.00 0.00 80 1008.9
20260506114024 61 146 0.9 7.0 0.00 0.00 0.00 80 1008.9
20260506113525 61 158 1.7 7.0 0.00 0.00 0.00 80 1008.7
20260506113052 61 180 0.9 9.6 0.00 0.00 0.00 80 1008.7
20260506112525 61 332 2.6 9.6 0.00 0.00 0.00 80 1008.8
20260506112024 61 115 1.7 6.1 0.00 0.00 0.00 80 1008.8
20260506111542 61 119 1.7 7.8 0.00 0.00 0.00 81 1008.7
20260506111024 61 270 1.7 7.8 0.00 0.00 0.00 81 1008.9
20260506110526 61 221 2.6 9.6 0.00 0.00 0.00 81 1009.0
20260506110051 60 169 1.7 9.6 0.00 0.00 0.00 81 1008.9
20260506105524 60 146 0.0 7.0 0.00 0.00 0.00 81 1008.9
20260506105026 60 269 2.6 10.4 0.00 0.00 0.00 81 1008.9
20260506104544 60 160 1.7 10.4 0.00 0.00 0.00 81 1008.9
20260506104024 60 257 1.7 6.1 0.00 0.00 0.00 82 1009.0
20260506103524 60 196 2.6 6.1 0.00 0.00 0.00 82 1008.9
20260506103047 60 207 1.7 9.6 0.00 0.00 0.00 82 1008.8
20260506102524 59 205 0.9 9.6 0.00 0.00 0.00 83 1008.7
20260506102025 59 87 1.7 8.7 0.00 0.00 0.00 83 1008.6
20260506101552 59 98 1.7 7.0 0.00 0.00 0.00 83 1008.6
20260506101024 59 117 1.7 7.0 0.00 0.00 0.00 84 1008.8
20260506100525 58 294 0.9 6.1 0.00 0.00 0.00 84 1008.9
20260506100101 58 155 1.7 6.1 0.00 0.00 0.00 84 1008.8
20260506095525 58 100 0.9 6.1 0.00 0.00 0.00 84 1008.7
20260506095026 58 86 0.9 5.2 0.00 0.00 0.00 84 1008.8
20260506094539 58 95 0.9 5.2 0.00 0.00 0.00 83 1008.7
20260506094026 58 130 1.7 4.3 0.00 0.00 0.00 83 1008.6
20260506093523 58 90 0.9 3.5 0.00 0.00 0.00 83 1008.6
20260506093044 58 119 0.9 3.5 0.00 0.00 0.00 82 1008.6
20260506092523 58 114 1.7 3.5 0.00 0.00 0.00 82 1008.7
20260506092029 58 101 0.9 3.5 0.00 0.00 0.00 82 1008.7
20260506091545 59 82 0.9 3.5 0.00 0.00 0.00 81 1008.6
20260506091028 59 111 0.9 7.0 0.00 0.00 0.00 81 1008.7
20260506090522 59 112 0.9 7.0 0.00 0.00 0.00 81 1008.7
20260506090035 59 84 0.9 3.5 0.00 0.00 0.00 80 1008.7
20260506085526 59 215 0.9 3.5 0.00 0.00 0.00 80 1008.8
20260506085026 59 228 1.7 3.5 0.00 0.00 0.00 80 1008.8
20260506084604 59 117 1.7 3.5 0.00 0.00 0.00 80 1008.9
20260506084023 59 96 0.9 4.3 0.00 0.00 0.00 80 1008.8
20260506083523 59 92 0.9 6.1 0.00 0.00 0.00 80 1008.9
20260506083041 59 83 0.9 6.1 0.00 0.00 0.00 80 1008.9
20260506082526 59 85 0.9 2.6 0.00 0.00 0.00 79 1009.0
20260506082028 59 86 0.9 6.1 0.00 0.00 0.00 78 1008.9
20260506081541 60 91 1.7 9.6 0.00 0.00 0.00 78 1009.0
20260506081023 60 91 0.9 9.6 0.00 0.00 0.00 77 1009.0
20260506080523 60 85 1.7 6.1 0.00 0.00 0.00 77 1009.0
20260506073524 61 141 1.7 5.2 0.00 0.00 0.00 74 1008.8
20260506073047 61 108 0.9 6.1 0.00 0.00 0.00 74 1009.0
20260506072523 61 352 0.0 6.1 0.00 0.00 0.00 73 1009.0
20260506072022 61 352 1.7 6.1 0.00 0.00 0.00 73 1009.0
20260506071539 61 165 0.9 3.5 0.00 0.00 0.00 72 1009.0
20260506071023 61 296 0.9 4.3 0.00 0.00 0.00 72 1009.0
20260506070526 62 151 0.9 4.3 0.00 0.00 0.00 72 1009.0
20260506062024 63 99 0.9 7.0 0.00 0.00 0.00 68 1009.0
20260506061542 63 204 1.7 6.1 0.00 0.00 0.00 67 1008.9
20260506061028 63 138 1.7 3.5 0.00 0.00 0.00 67 1008.9
20260506060525 63 186 0.9 8.7 0.00 0.00 0.00 67 1008.9
20260506051026 65 352 1.7 6.1 0.00 0.00 0.00 64 1009.4
20260506050524 65 146 1.7 6.1 0.00 0.00 0.00 64 1009.4
20260506045025 65 264 0.9 5.2 0.00 0.00 0.00 64 1009.5
20260506044629 65 105 0.9 5.2 0.00 0.00 0.00 64 1009.5
20260506044026 65 161 1.7 7.0 0.00 0.00 0.00 63 1009.6
20260506043525 65 322 0.9 7.0 0.00 0.00 0.00 63 1009.5
20260506043037 65 114 1.7 7.0 0.00 0.00 0.00 63 1009.4
20260506042525 65 143 2.6 7.0 0.00 0.00 0.00 62 1009.4
20260506042025 65 158 0.9 11.3 0.00 0.00 0.00 63 1009.4
20260506041558 66 119 0.9 11.3 0.00 0.00 0.00 62 1009.4
20260506041030 66 104 1.7 10.4 0.00 0.00 0.00 62 1009.4
20260506040525 66 110 0.9 7.0 0.00 0.00 0.00 62 1009.3
20260506040043 66 272 2.6 7.0 0.00 0.00 0.00 62 1009.3
20260506035528 66 281 1.7 7.0 0.00 0.00 0.00 62 1009.3
20260506035025 66 333 0.9 6.1 0.00 0.00 0.00 62 1009.4
20260506034619 66 154 0.9 6.1 0.00 0.00 0.00 61 1009.3
20260506034026 66 271 0.9 11.3 0.00 0.00 0.00 61 1009.4
20260506033525 66 90 1.7 11.3 0.00 0.00 0.00 61 1009.3
20260506033039 66 78 1.7 6.1 0.00 0.00 0.00 61 1009.4
20260506032525 66 330 0.9 6.1 0.00 0.00 0.00 61 1009.3
20260506032025 66 214 0.9 7.0 0.00 0.00 0.00 61 1009.3
20260506031535 66 198 0.9 7.0 0.00 0.00 0.00 61 1009.3
20260506031026 66 150 1.7 3.5 0.00 0.00 0.00 61 1009.3
20260506030525 66 278 0.9 7.0 0.00 0.00 0.00 61 1009.4
20260506030044 66 292 0.9 7.0 0.00 0.00 0.00 61 1009.3
20260506025525 66 269 1.7 4.3 0.00 0.00 0.00 61 1009.3
20260506025025 66 175 0.0 9.6 0.00 0.00 0.00 60 1009.2
20260506024545 66 65 2.6 9.6 0.00 0.00 0.00 60 1009.3
20260506024025 66 267 0.9 7.8 0.00 0.00 0.00 60 1009.2
20260506023525 66 104 0.9 7.8 0.00 0.00 0.00 60 1009.3
20260506023101 66 115 1.7 7.8 0.00 0.00 0.00 59 1009.3
20260506022525 66 352 1.7 5.2 0.00 0.00 0.00 59 1009.3
20260506022026 66 102 0.9 5.2 0.00 0.00 0.00 59 1009.2
20260506021540 67 150 0.9 5.2 0.00 0.00 0.00 59 1009.4
20260506021026 67 119 1.7 5.2 0.00 0.00 0.00 58 1009.3
20260506020525 67 104 0.9 7.0 0.00 0.00 0.00 58 1009.1
20260506020042 67 76 1.7 9.6 0.00 0.00 0.00 58 1009.2
20260506015528 67 138 1.7 9.6 0.00 0.00 0.00 58 1009.2
20260506015029 67 0 0.0 3.5 0.00 0.00 0.00 58 1009.2
20260506014544 67 53 0.9 3.5 0.00 0.00 0.00 57 1009.2
20260506014024 67 99 0.9 3.5 0.00 0.00 0.00 57 1009.1
20260506013526 67 105 0.9 1.7 0.00 0.00 0.00 56 1009.1
20260506013043 67 0 0.0 2.6 0.00 0.00 0.00 58 1008.9
20260506012525 67 110 0.9 2.6 0.00 0.00 0.00 58 1008.8
20260506012026 67 107 0.0 2.6 0.00 0.00 0.00 58 1008.9
20260506011541 67 101 0.0 3.5 0.00 0.00 0.00 59 1008.8
20260506011025 67 126 0.9 5.2 0.00 0.00 0.00 59 1008.7
20260506010525 66 164 0.9 6.1 0.00 0.00 0.00 60 1008.7
20260506010050 66 128 0.9 6.1 0.00 0.00 0.00 63 1008.6
20260506005524 66 153 0.0 1.7 0.00 0.00 0.00 60 1008.6
20260506005025 66 107 0.0 1.7 0.00 0.00 0.00 61 1008.6
20260506004602 66 0 0.0 5.2 0.00 0.00 0.00 61 1008.6
20260506004023 67 108 0.0 5.2 0.00 0.00 0.00 61 1008.5
20260506003526 67 360 0.0 2.6 0.00 0.00 0.00 60 1008.5
20260506003056 67 153 0.0 1.7 0.00 0.00 0.00 59 1008.5
20260506002526 67 58 0.0 1.7 0.00 0.00 0.00 59 1008.4
20260506002023 67 0 0.0 1.7 0.00 0.00 0.00 59 1008.3
20260506001543 68 336 0.0 1.7 0.00 0.00 0.00 60 1008.3
20260506001027 68 336 0.0 1.7 0.00 0.00 0.00 59 1008.1
20260506000524 68 82 0.0 1.7 0.00 0.00 0.00 57 1008.1
20260506000046 69 113 0.0 2.6 0.00 0.00 0.00 57 1008.1
20260505235523 69 30 0.0 2.6 0.00 0.00 0.00 56 1008.0
20260505235023 69 90 0.0 2.6 0.00 0.00 0.00 56 1007.9
20260505234559 69 134 0.9 2.6 0.00 0.00 0.00 56 1007.8
20260505234029 70 327 0.0 2.6 0.00 0.00 0.00 55 1007.7
20260505233530 70 244 0.9 2.6 0.00 0.00 0.00 54 1007.7
20260505233045 70 0 0.9 3.5 0.00 0.00 0.00 53 1007.7
20260505232527 70 148 0.9 3.5 0.00 0.00 0.00 54 1007.6
20260505232024 70 79 0.9 5.2 0.00 0.00 0.00 54 1007.5
20260505231545 70 352 1.7 5.2 0.00 0.00 0.00 54 1007.5
20260505231024 71 321 0.9 4.3 0.00 0.00 0.00 54 1007.3
20260505230523 71 99 1.7 4.3 0.00 0.00 0.00 53 1007.2
20260505230045 71 161 0.9 3.5 0.00 0.00 0.00 53 1007.1
20260505225526 71 107 0.9 5.2 0.00 0.00 0.00 53 1007.1
20260505225023 72 132 0.9 7.8 0.00 0.00 0.00 53 1007.1
20260505224542 72 103 0.9 7.8 0.00 0.00 0.00 52 1007.1
20260505224023 72 144 1.7 7.0 0.00 0.00 0.00 52 1007.0
20260505223523 73 184 0.9 7.8 0.00 0.00 0.00 51 1006.9
20260505223039 73 103 1.7 7.8 0.00 0.00 0.00 51 1006.9
20260505222526 74 94 1.7 7.0 0.00 0.00 0.00 50 1006.8
20260505222024 74 182 1.7 7.0 0.00 0.00 0.00 50 1006.8
20260505221535 75 104 1.7 7.0 0.00 0.00 0.00 49 1006.8
20260505221024 75 211 1.7 5.2 0.00 0.00 0.00 48 1006.8
20260505220545 75 167 1.7 5.2 0.00 0.00 0.00 48 1006.8
20260505220057 76 107 0.9 9.6 0.00 0.00 0.00 49 1006.9
20260505215524 76 113 0.9 9.6 0.00 0.00 0.00 47 1006.8
20260505215024 77 101 2.6 9.6 0.00 0.00 0.00 44 1006.8
20260505214541 77 340 2.6 9.6 0.00 0.00 0.00 42 1006.8
20260505214023 78 104 1.7 5.2 0.00 0.00 0.00 43 1006.7
20260505213524 78 274 0.9 5.2 0.00 0.00 0.00 44 1006.7
20260505213039 78 325 0.9 7.0 0.00 0.00 0.00 44 1006.7
20260505212523 78 96 1.7 7.0 0.00 0.00 0.00 42 1006.8
20260505212023 78 321 1.7 7.0 0.00 0.00 0.00 42 1006.6
20260505211546 78 140 1.7 7.0 0.00 0.00 0.00 42 1006.4
20260505211026 79 265 2.6 7.8 0.00 0.00 0.00 40 1006.4
20260505210522 79 272 1.7 13.9 0.00 0.00 0.00 39 1006.3
20260505210045 79 270 3.5 13.9 0.00 0.00 0.00 40 1006.3
20260505205526 79 158 2.6 7.8 0.00 0.00 0.00 40 1006.4
20260505205025 79 201 2.6 7.8 0.00 0.00 0.00 41 1006.2
20260505204545 79 90 2.6 11.3 0.00 0.00 0.00 42 1006.3
20260505204024 79 239 3.5 13.9 0.00 0.00 0.00 40 1006.4
20260505203523 79 269 3.5 13.9 0.00 0.00 0.00 41 1006.5
20260505203042 79 89 1.7 14.8 0.00 0.00 0.00 41 1006.5
20260505202524 79 279 2.6 14.8 0.00 0.00 0.00 40 1006.7
20260505202022 79 219 3.5 10.4 0.00 0.00 0.00 39 1006.6
20260505201538 79 74 3.5 14.8 0.00 0.00 0.00 39 1006.6
20260505201026 80 254 1.7 14.8 0.00 0.00 0.00 41 1006.5
20260505200528 80 320 3.5 16.5 0.00 0.00 0.00 39 1006.7
20260505200037 80 91 2.6 16.5 0.00 0.00 0.00 39 1006.6
20260505195525 81 285 3.5 16.5 0.00 0.00 0.00 39 1006.7
20260505195025 80 294 1.7 13.0 0.00 0.00 0.00 41 1006.7
20260505194547 80 155 5.2 13.0 0.00 0.00 0.00 39 1006.8
20260505194024 80 138 3.5 12.2 0.00 0.00 0.00 40 1006.8
20260505193524 80 110 2.6 10.4 0.00 0.00 0.00 42 1006.7
20260505193047 80 153 2.6 10.4 0.00 0.00 0.00 39 1006.8
20260505192523 80 304 3.5 10.4 0.00 0.00 0.00 39 1006.8
20260505192023 81 115 2.6 10.4 0.00 0.00 0.00 40 1006.9
20260505191552 81 90 3.5 10.4 0.00 0.00 0.00 40 1006.8
20260505191027 81 303 2.6 13.0 0.00 0.00 0.00 39 1006.8
20260505190523 81 224 3.5 13.0 0.00 0.00 0.00 40 1006.9
20260505190039 81 238 3.5 12.2 0.00 0.00 0.00 39 1006.9
20260505185526 81 212 2.6 10.4 0.00 0.00 0.00 41 1007.2
20260505185025 80 268 3.5 10.4 0.00 0.00 0.00 42 1007.2
20260505184538 80 133 3.5 10.4 0.00 0.00 0.00 38 1007.2
20260505184025 80 329 7.0 10.4 0.00 0.00 0.00 38 1007.2
20260505183525 81 116 4.3 9.6 0.00 0.00 0.00 37 1007.4
20260505183045 81 275 3.5 9.6 0.00 0.00 0.00 38 1007.3
20260505182523 81 306 3.5 9.6 0.00 0.00 0.00 38 1007.3
20260505182023 80 266 4.3 9.6 0.00 0.00 0.00 38 1007.3
20260505181543 80 299 3.5 10.4 0.00 0.00 0.00 38 1007.4
20260505181024 80 292 5.2 10.4 0.00 0.00 0.00 38 1007.2
20260505180526 80 108 3.5 16.5 0.00 0.00 0.00 38 1007.3
20260505180051 80 291 4.3 16.5 0.00 0.00 0.00 38 1007.3
20260505175523 80 271 2.6 12.2 0.00 0.00 0.00 39 1007.3
20260505175023 80 261 3.5 12.2 0.00 0.00 0.00 38 1007.3
20260505174551 80 135 3.5 13.9 0.00 0.00 0.00 36 1007.3
20260505174023 80 211 2.6 13.9 0.00 0.00 0.00 38 1007.4
20260505173525 79 117 4.3 13.9 0.00 0.00 0.00 38 1007.3
20260505173036 79 309 4.3 11.3 0.00 0.00 0.00 39 1007.5
20260505172529 79 277 2.6 10.4 0.00 0.00 0.00 39 1007.5
20260505172024 79 287 5.2 10.4 0.00 0.00 0.00 38 1007.6
20260505171543 79 279 1.7 10.4 0.00 0.00 0.00 39 1007.7
20260505171024 79 306 2.6 10.4 0.00 0.00 0.00 40 1007.9
20260505170523 79 271 3.5 7.8 0.00 0.00 0.00 40 1008.1
20260505170100 79 109 1.7 7.8 0.00 0.00 0.00 43 1008.1
20260505165528 79 148 2.6 9.6 0.00 0.00 0.00 41 1008.2
20260505165023 79 248 2.6 9.6 0.00 0.00 0.00 41 1008.2
20260505164539 78 128 1.7 8.7 0.00 0.00 0.00 43 1008.3
20260505164026 78 44 1.7 8.7 0.00 0.00 0.00 44 1008.4
20260505163525 77 276 1.7 8.7 0.00 0.00 0.00 44 1008.7
20260505163039 77 288 4.3 7.8 0.00 0.00 0.00 45 1008.7
20260505162525 76 251 4.3 8.7 0.00 0.00 0.00 45 1008.8
20260505162023 76 264 4.3 8.7 0.00 0.00 0.00 44 1008.9
20260505161553 76 234 2.6 8.7 0.00 0.00 0.00 45 1008.9
20260505161023 76 245 3.5 8.7 0.00 0.00 0.00 45 1008.9
20260505160522 76 285 4.3 7.8 0.00 0.00 0.00 44 1009.0
20260505153055 75 294 1.7 7.8 0.00 0.00 0.00 47 1009.2
20260505152524 74 258 2.6 14.8 0.00 0.00 0.00 48 1009.1
20260505152024 74 276 2.6 14.8 0.00 0.00 0.00 48 1009.1
20260505151549 74 302 2.6 7.0 0.00 0.00 0.00 49 1009.1
20260505151025 74 253 2.6 8.7 0.00 0.00 0.00 51 1009.5
20260505150525 73 292 3.5 8.7 0.00 0.00 0.00 49 1009.4